2018-096N (43731 NORAD) Tracking and Keplerian Element Data

This shows tracking and keplerian element data for the satellite.

Feedback or suggestion? Click here.




ElementValue
Catalog43731
Name2018-096N
Epoch Orbit171
Epoch Day344.45412017
Epoch Year2018
RAAN49.4657
Inclination97.4841
Eccentricity0.0019785
Argument of Perigee287.7068
Mean Anonmoly171.0258
Mean Motion15.2657929
Decay Rate2.518E-05
L11 43731U 18096N 18344.45412017 .00002518 00000-0 98637-4 0 9999
L22 43731 97.4841 49.4657 0019785 287.7068 171.0258 15.26579290 1715

Live tracking and technical data element details for 2018-096N (NORAD 43731). 2018-096N can be tracked NOW for your location showing map with azimuth and elevation plus other details from your city location.

Track the satellite on the map from your city or location and see movement details for azimuth, elevation, latitude, longitude, range, height, and movement on the map or in text.







IsCatalogInMostPopularTable: catalog: 43731, numindb: 7
Update: records affected: 1



GetName: 43731 2018-096N

Hit Count: updated at: Tue, 11 Dec 2018 02:34:22 GMT